Terminal Aerodrome Forecast
Issued by NWS Jackson, KY

Home | Current Version | Previous Version | Text Only | Print | Product List | Glossary On
Versions: 1 2 3 4 5 6 7 8 9 10 11 12 13 14 15 16 17 18 19 20 21 22 23
000
FTUS43 KJKL 151800 AAA
TAFJKL
TAF AMD
KJKL 151849Z 1519/1618 32005KT P6SM FEW024 BKN030 OVC035
     FM152100 30010G18KT P6SM SCT018 OVC035
     FM152300 VRB04KT P6SM BKN040
     FM160300 VRB03KT P6SM SKC=

USA.gov is the U.S. government's official web portal to all federal, state and local government web resources and services.